Location: Saint-Usage
(47.1052°N, 5.2587°E)
Time: 13:32:21
(UTC+02:00)

Envisat - Pass Details

Date: 02 October 2021
Orbit: 764 x 766 km, 98.2° (Epoch: 20 October)

Event Time Altitude Azimuth Distance (km) Brightness Sun altitude
Rises 06:35:38 0° 16° (NNE) 3,242 6.6 -11.6°
Reaches altitude 10° 06:37:59 10° 21° (NNE) 2,311 5.9 -11.2°
Maximum altitude 06:43:01 58° 100° (E) 887 3.7 -10.4°
Drops below altitude 10° 06:48:00 10° 180° (S) 2,294 5.4 -9.5°
Sets 06:50:20 0° 184° (S) 3,215 6.1 -9.1°
